Weather in Luang Namtha

Laos     21°00′09″N   101°24′27″E
temp.,
°C
wind,
m/s
gust,
m/s
humid.,
%
clouds,
%
prec.,
mm/h
press.,
hPa
HPBL,
m
6 august, fri
fri601:00+21sse0099100 0.6 100620
04:00+20ssw00100100 0.0 100626
07:00+21s0198100 0.0 1006121
10:00+27ssw126959 0.1 1006917
13:00+27ne1187100 1.3 1003364
16:00+26s129391 3.4 1001251
19:00+23sw119697 4.4 100311
22:00+22ssw119899 0.0 100626
7 august, sat
sat701:00+21s11100100 0.0 100619
04:00+20s0010090 0.0 100522
07:00+21sse019976 0.0 1007124
10:00+27ssw126847 0.2 1006909
13:00+29ssw1260100 0.5 10031148
16:00+26ssw1488100 0.8 1002191
19:00+24ssw1190100 1.2 100414
22:00+22ssw1194100 0.1 100719
8 august, sun
sun801:00+21ssw1199100 0.1 100619
04:00+21ssw00100100 2.6 100533
07:00+21sse11100100 4.0 100785
10:00+22s12100100 2.0 1008174
13:00+22s12100100 3.8 1007156
16:00+22s1299100 2.6 1005154
19:00+21sse11100100 2.7 100633
22:00+21sse00100100 0.0 100925
9 august, mon
mon901:00+20ssw00100100 0.0 100823
04:00+20s00100100 0.1 100641
07:00+21sse0099100 0.1 100866
10:00+22s0195100 0.2 1008256
13:00+28sw1272100 0.9 10041027
16:00+25s1296100 4.2 1003503
19:00+23se1192100 1.1 100412
22:00+22s1199100 0.1 100616
10 august, tue
tue1001:00+21s00100100 0.2 100522
04:00+21sse00100100 0.0 100433
07:00+22s0198100 0.1 1005117
10:00+26ssw1278100 0.4 1005670
13:00+25ssw1397100 4.8 1003613
16:00+22s13100100 6.6 100292
19:00+22s12100100 9.8 100489
22:00+22sse01100100 2.1 100653